Location: Härggis
(46.9540°N, 8.4897°E)
Time: 00:03:52
(UTC+00:00)

USA 307 - Pass Details

Date: 27 May 2022
Orbit: 552 x 554 km, 54.0° (Epoch: 17 June)

Event Time Altitude Azimuth Distance (km) Brightness Sun altitude
Exits shadow 01:43:46 - 270° (W) 1,883 5.2 -14.8°
Reaches altitude 10° 01:43:54 10° 271° (W) 1,838 5.2 -14.8°
Maximum altitude 01:47:51 41° 342° (NNW) 816 4.0 -14.4°
Drops below altitude 10° 01:51:51 10° 54° (NE) 1,845 6.7 -14.0°
Sets 01:54:12 0° 62° (ENE) 2,743 7.6 -13.8°
